RH
29 31 34 35 38 39 40 42 42 43 41 34 34 29 28 26 28 30 29 26 36 59 89 87 84 72 67 68 81 94 95 96 96 98 98 96 97 94
32 37 39 40 42 42 41 41 45 47 50 41 33 31 33 33 33 33 35 40 37 44 88 95 92 90 76 63 93 94 98 98 94 95 96 98 93 95
34 37 40 44 45 46 43 44 45 48 49 39 41 41 43 44 45 47 52 55 59 51 76 95 98 98 86 76 72 85 92 88 87 90 90 91 89 91
31 37 41 44 49 45 43 45 47 50 50 45 41 46 48 52 55 59 61 65 72 67 62 82 90 98 93 83 75 68 88 82 80 86 88 91 94 96
24 28 36 42 46 50 42 43 45 50 50 50 46 50 51 56 62 68 70 67 72 73 70 73 88 96 98 89 83 76 72 72 77 81 82 88 88 91
13 18 20 34 43 49 45 43 46 49 50 52 50 52 56 58 65 71 77 83 72 74 72 78 86 92 95 91 87 84 81 83 88 86 79 74 70 69
13 15 21 25 39 45 51 43 47 50 51 52 51 52 53 56 65 76 81 86 87 93 89 90 91 97 97 97 95 92 89 86 82 79 76 75 76 77
15 21 22 30 36 42 51 50 45 51 53 55 55 53 49 54 57 67 80 88 91 95 90 94 95 96 95 96 96 96 95 94 92 90 88 85 84 85
21 21 22 30 34 40 48 52 46 49 53 56 60 62 58 56 54 51 66 81 91 96 92 95 96 96 97 95 94 94 94 92 89 89 90 92 92 86
18 22 23 28 33 38 45 50 47 48 50 53 54 60 66 68 69 71 63 61 70 82 86 84 85 89 94 94 93 91 89 87 88 88 87 85 82 80
17 20 23 27 33 35 44 47 48 48 49 51 51 54 61 66 71 77 82 76 68 64 74 79 82 84 83 82 81 83 84 87 83 79 81 85 82 76
21 24 31 27 34 40 42 42 49 54 54 55 57 59 60 65 68 71 78 83 80 73 70 68 72 77 78 79 82 83 80 80 82 82 84 85 86 81
33 30 32 36 26 28 36 41 44 51 61 60 59 61 64 63 67 73 76 80 84 85 79 75 69 68 71 71 71 73 76 80 82 81 81 83 81 84
62 57 50 41 41 41 36 31 31 34 45 58 61 59 64 68 68 71 78 79 79 80 87 88 81 79 77 75 74 72 73 72 77 79 79 80 85 86
74 72 68 59 55 53 46 41 34 34 34 36 41 49 56 61 65 68 70 75 75 78 80 85 92 89 77 77 73 78 84 84 85 83 84 89 86 85
61 68 75 76 76 68 56 51 45 45 47 47 40 38 36 33 31 32 33 39 46 61 76 74 73 79 86 91 93 89 88 89 89 87 82 89 88 81
56 58 64 68 72 79 74 71 69 63 59 52 49 45 45 40 38 36 34 33 35 34 45 59 60 53 44 35 34 44 54 75 85 83 77 70 65 69
60 60 61 67 75 75 76 76 76 70 62 57 56 50 48 46 42 43 43 44 44 41 39 35 35 39 41 39 33 29 33 38 47 59 63 61 53 43
65 67 63 64 67 69 73 77 77 73 69 67 68 66 61 57 49 48 49 50 53 49 47 46 44 38 40 49 51 49 44 39 36 35 34 32 32 31
59 59 62 69 76 74 69 73 81 84 80 75 70 66 62 61 61 59 57 58 55 57 56 56 55 55 50 41 42 50 53 54 54 51 47 46 44 44
58 60 68 68 77 86 81 73 76 83 85 85 85 80 80 75 73 73 74 71 66 64 61 59 59 58 58 57 49 42 42 44 48 50 51 52 52 51
61 63 66 72 77 81 83 83 83 82 85 87 86 85 82 81 80 79 79 80 79 77 74 70 66 64 61 57 58 55 50 45 42 40 40 42 46 48
67 69 75 85 86 85 87 80 77 82 82 83 80 80 79 79 81 82 82 81 78 75 76 76 74 70 67 65 61 59 58 56 51 47 43 42 42 41